{"data":{"norad_id":47828,"intl_designator":"2021-018AT","name":"STARLINK-2415","alt_names":[],"object_type":"PAYLOAD","status":"ACTIVE","operator":null,"country":"US","launch_date":"2021-03-11","launch_site_code":"AFETR","launch_vehicle":null,"mission":null,"orbit_class":"UNKNOWN","rcs_meters":null,"size_class":null,"mass_kg":null,"dimensions":null,"purposes":["comms"],"wikipedia_slug":null,"has_3d_model":false,"image_url":null,"decayed_at":null,"tle_current":{"epoch":"2026-09-19T23:02:47.880096Z","epoch_age_seconds":54506,"freshness":"FRESH","line1":"1 47828U 21018AT  26262.96027639  .00001304  00000+0  53753-4 0  9995","line2":"2 47828  53.1599  71.1986 0001189  97.6395 262.4742 15.31717277306325","mean_motion":15.31717277,"eccentricity":0.0001189,"inclination_deg":53.1599,"raan_deg":71.1986,"arg_perigee_deg":97.6395,"mean_anomaly_deg":262.4742,"bstar":5.3753e-5,"rev_number":30632,"period_min":94.012127539644,"perigee_km":469.87416852054,"apogee_km":471.50281922299,"semimajor_km":6848.8254938718,"source":"CELESTRAK","updated_at":"2026-09-20T09:00:38.751247Z"}}}